Location: Cudham
(51.3000°N, 0.0667°E)
Time: 18:38:35
(UTC+00:00)

Cosmos 381 Rocket - Pass Details

Date: 19 May 2025
Orbit: 954 x 995 km, 74.0° (Epoch: 23 June)

Event Time Altitude Azimuth Distance (km) Brightness Sun altitude
Exits shadow 23:17:21 25° 200° (SSW) 1,869 5.5 -18.2°
Maximum altitude 23:21:18 86° 114° (ESE) 989 4.5 -18.3°
Drops below altitude 10° 23:27:42 10° 26° (NNE) 2,757 7.7 -18.4°
Sets 23:30:17 0° 26° (NNE) 3,714 8.5 -18.5°
